CW9888 Weather Reports


Display with metric or nautical units.
time (UTC)temp
F
wind
direction
speed
MPH
gust
MPH
rain 1hr
in
rain 24hr
in
rain mn
in
humidity
%
barometer
mb
20180922183004 78 319 2.0 0.0 0.00 0.00 0.00 78 1014.1
20180922181512 78 343 2.0 0.0 0.00 0.00 0.00 78 1014.1
20180922174550 79 329 2.0 0.0 0.00 0.00 0.00 77 1013.8
20180922173051 79 296 2.0 0.0 0.00 0.00 0.00 77 1013.6
20180922171630 79 324 2.0 0.0 0.00 0.00 0.00 77 1013.5
20180922170044 79 299 2.0 0.0 0.00 0.00 0.00 77 1013.3
20180922164543 79 348 2.0 0.0 0.00 0.00 0.00 77 1013.1
20180922163044 79 360 2.0 0.0 0.00 0.00 0.00 76 1012.9
20180922161608 79 327 3.0 0.0 0.00 0.00 0.00 76 1012.7
20180922160105 79 329 2.0 0.0 0.00 0.00 0.00 76 1012.6
20180922154532 80 146 3.0 0.0 0.00 0.00 0.00 76 1012.4
20180922153055 80 311 2.0 0.0 0.00 0.00 0.00 75 1012.4
20180922151603 80 325 3.0 0.0 0.00 0.00 0.00 75 1012.4
20180922150038 81 331 3.0 0.0 0.00 0.00 0.00 73 1012.2
20180922144530 81 321 4.0 0.0 0.00 0.00 0.00 72 1012.1
20180922143038 81 298 5.0 0.0 0.00 0.00 0.00 72 1012.2
20180922141529 82 311 4.0 0.0 0.00 0.00 0.00 70 1012.1
20180922140120 82 308 4.0 0.0 0.00 0.00 0.00 70 1012.1
20180922134555 82 302 4.0 0.0 0.00 0.00 0.00 69 1012.2
20180922133108 82 274 6.0 0.0 0.00 0.00 0.00 68 1012.2
20180922131530 83 30 5.0 0.0 0.00 0.00 0.00 68 1012.2
20180922130035 83 331 4.0 0.0 0.00 0.00 0.00 67 1012.2
20180922124528 83 313 5.0 0.0 0.00 0.00 0.00 68 1012.3
20180922123043 82 304 6.0 0.0 0.00 0.00 0.00 68 1012.3
20180922121601 84 296 4.0 0.0 0.00 0.00 0.00 66 1012.5
20180922120045 83 314 5.0 0.0 0.00 0.00 0.00 66 1012.6
20180922114549 83 300 3.0 0.0 0.00 0.00 0.00 66 1012.5
20180922113023 83 292 5.0 0.0 0.00 0.00 0.00 67 1012.6
20180922111610 83 302 4.0 0.0 0.00 0.00 0.00 67 1012.7
20180922110037 84 307 3.0 0.0 0.00 0.00 0.00 67 1012.7
20180922104520 83 317 3.0 0.0 0.00 0.00 0.00 66 1012.9
20180922103041 83 230 4.0 0.0 0.00 0.00 0.00 68 1012.9
20180922101520 83 252 2.0 0.0 0.00 0.00 0.00 69 1013.0
20180922100025 83 259 3.0 0.0 0.00 0.00 0.00 70 1013.1
20180922094534 82 284 3.0 0.0 0.00 0.00 0.00 69 1013.1
20180922093023 82 298 3.0 0.0 0.00 0.00 0.00 68 1013.3
20180922091516 83 321 3.0 0.0 0.00 0.00 0.00 68 1013.5
20180922090019 82 292 2.0 0.0 0.00 0.00 0.00 69 1013.5
20180922084521 81 265 4.0 0.0 0.00 0.00 0.00 70 1013.6
20180922083016 81 262 3.0 0.0 0.00 0.00 0.00 70 1013.6
20180922081513 82 331 3.0 0.0 0.00 0.00 0.00 70 1013.7
20180922080020 81 293 3.0 0.0 0.00 0.00 0.00 69 1013.8
20180922074511 82 234 2.0 0.0 0.00 0.00 0.00 68 1013.8
20180922073020 82 231 3.0 0.0 0.00 0.00 0.00 69 1013.8
20180922071508 82 334 1.0 0.0 0.00 0.00 0.00 66 1013.8
20180922070006 81 78 1.0 0.0 0.00 0.00 0.00 70 1013.7
20180922064511 80 312 3.0 0.0 0.00 0.00 0.00 70 1013.7
20180922063002 80 213 2.0 0.0 0.00 0.00 0.00 73 1013.7
20180922061619 79 210 2.0 0.0 0.00 0.00 0.00 74 1013.6
20180922060057 78 177 2.0 0.0 0.00 0.00 0.00 74 1013.5
20180922054640 77 205 2.0 0.0 0.00 0.00 0.00 75 1013.5
20180922053054 76 184 1.0 0.0 0.00 0.00 0.00 76 1013.4
20180922051600 75 156 1.0 0.0 0.00 0.00 0.00 77 1013.3
20180922050104 75 141 1.0 0.0 0.00 0.00 0.00 78 1013.2
20180922044608 74 132 0.0 0.0 0.00 0.00 0.00 79 1013.1
20180922043128 73 133 0.0 0.0 0.00 0.00 0.00 81 1013.2
20180922041608 72 125 1.0 0.0 0.00 0.00 0.00 82 1013.1
20180922040122 71 131 0.0 0.0 0.00 0.00 0.00 83 1013.0
20180922034642 71 136 1.0 0.0 0.00 0.00 0.00 83 1013.1
20180922033044 71 130 1.0 0.0 0.00 0.00 0.00 84 1012.9
20180922031633 71 188 1.0 0.0 0.00 0.00 0.00 84 1012.8
20180922030105 72 199 1.0 0.0 0.00 0.00 0.00 84 1012.7
20180922024558 72 202 0.0 0.0 0.00 0.00 0.00 84 1012.7
20180922023036 72 201 0.0 0.0 0.00 0.00 0.00 84 1012.7
20180922021704 72 202 0.0 0.0 0.00 0.00 0.00 84 1012.6
20180922020047 72 201 0.0 0.0 0.00 0.00 0.00 83 1012.6
20180922014613 72 206 0.0 0.0 0.00 0.00 0.00 83 1012.6
20180922013039 73 202 0.0 0.0 0.00 0.00 0.00 83 1012.5
20180922011538 73 203 0.0 0.0 0.00 0.00 0.00 83 1012.5
20180922010045 73 205 0.0 0.0 0.00 0.00 0.00 82 1012.5
20180922004549 73 203 0.0 0.0 0.00 0.00 0.00 83 1012.6
20180922003037 73 205 0.0 0.0 0.00 0.00 0.00 82 1012.5
20180922001550 73 203 0.0 0.0 0.00 0.00 0.00 82 1012.5
20180922000118 73 211 0.0 0.0 0.00 0.00 0.00 81 1012.5
20180921234534 73 213 0.0 0.0 0.00 0.00 0.00 81 1012.6
20180921233035 73 218 0.0 0.0 0.00 0.00 0.00 80 1012.6
20180921231538 73 226 1.0 0.0 0.00 0.00 0.00 80 1012.6
20180921230040 73 241 0.0 0.0 0.00 0.00 0.00 80 1012.5
20180921224524 73 248 0.0 0.0 0.00 0.00 0.00 80 1012.7
20180921223031 73 269 0.0 0.0 0.00 0.00 0.00 79 1012.7
20180921221535 74 298 0.0 0.0 0.00 0.00 0.00 79 1012.7
20180921220036 74 302 0.0 0.0 0.00 0.00 0.00 79 1012.7
20180921214525 74 300 0.0 0.0 0.00 0.00 0.00 79 1012.6
20180921213044 74 300 0.0 0.0 0.00 0.00 0.00 78 1012.7
20180921211528 75 311 0.0 0.0 0.00 0.00 0.00 77 1012.7
20180921210025 75 308 0.0 0.0 0.00 0.00 0.00 77 1012.8
20180921204512 76 314 0.0 0.0 0.00 0.00 0.00 77 1012.9
20180921203018 76 311 0.0 0.0 0.00 0.00 0.00 77 1013.0
20180921201517 76 313 1.0 0.0 0.00 0.00 0.00 76 1012.9
20180921200013 76 315 0.0 0.0 0.00 0.00 0.00 76 1012.8
20180921194510 76 314 0.0 0.0 0.00 0.00 0.00 76 1012.9
20180921193010 76 315 0.0 0.0 0.00 0.00 0.00 76 1012.8
20180921191507 76 313 0.0 0.0 0.00 0.00 0.00 76 1012.8
20180921190005 76 313 0.0 0.0 0.00 0.00 0.00 76 1012.8
20180921184504 76 313 0.0 0.0 0.00 0.00 0.00 76 1012.7